Regional Weather Roundup
Issued by NWS Memphis, TN

Home | Current Version | Previous Version | Text Only | Print | Product List | Glossary On
Versions: 1 2 3 4 5 6 7 8 9 10 11 12 13 14 15 16 17 18 19 20 21 22 23 24 25 26 27 28 29 30 31 32 33 34 35 36 37 38 39 40 41 42 43 44 45 46 47 48 49 50
000
ASUS44 KMEG 191410
RWRMEG
MEMPHIS CWA HOURLY WEATHER ROUNDUP
NATIONAL WEATHER SERVICE MEMPHIS TN
900 AM CDT FRI SEP 19 2014

...WEST TENNESSEE...

CITY           SKY/WX    TMP DP  RH WIND       PRES   REMARKS
MEMPHIS INTL   MOSUNNY   70  65  84 E3        30.03S
NWS MEMPHIS      N/A     67 N/A N/A MISG        N/A
JACKSON        SUNNY     67  61  81 SE5       30.05R
LEXINGTON      SUNNY     66  61  82 E5        30.05R
SAVANNAH       SUNNY     66  66 100 S3        30.05S
DYERSBURG      SUNNY     64  54  68 E5        30.06S
UNION CITY     SUNNY     64  57  77 E5        30.05S
PARIS          SUNNY     63  57  82 E6        30.07S
HUNTINGDON     SUNNY     65  58  78 E7        30.06S


...EASTERN ARKANSAS...

CITY           SKY/WX    TMP DP  RH WIND       PRES   REMARKS
JONESBORO      SUNNY     67  61  81 NE8       30.04R
WEST MEMPHIS   CLOUDY    67  67 100 CALM      30.03R FOG
BATESVILLE     PTSUNNY   66  61  82 CALM      30.05S
NEWPORT        SUNNY     68  63  84 N6        30.06R
WALNUT RIDGE   SUNNY     64  59  82 NE8       30.05R
BLYTHEVILLE    SUNNY     68  63  84 E5        30.05R
NW BLYTHEVILLE SUNNY     64  61  88 E7        30.04
SEARCY         CLOUDY    70  64  81 NE7       30.05R
STUTTGART      CLOUDY    66  64  94 NE5       30.03R
PINE BLUFF     CLOUDY    68  67  96 N7        30.02R FOG
MONTICELLO     PTSUNNY   71  68  90 NE7       30.00R


...NORTH MISSISSIPPI...

CITY           SKY/WX    TMP DP  RH WIND       PRES   REMARKS
TUPELO         CLOUDY    68  66  93 S3        30.04R FOG
OXFORD         MOSUNNY   66  66 100 E6        30.06R
OLIVE BRANCH   FOG       64  64 100 E3        30.04R VSB 1
CLARKSDALE     CLOUDY    68  68 100 E5        30.04R
CORINTH        MOSUNNY   70  66  88 CALM      30.04S
GRENADA        CLOUDY    68  68 100 SE7       30.04R
GREENWOOD      CLOUDY    70  67  90 E8        30.02R
COLUMBUS       MOSUNNY   70  70  99 VRB2      30.04R
STARKVILLE     FAIR      72  66  83 CALM      30.04R
GOLDEN TRIANGL PTSUNNY   70  64  83 CALM      30.04R


...SOUTHEAST MISSOURI...

CITY           SKY/WX    TMP DP  RH WIND       PRES   REMARKS
WEST PLAINS    SUNNY     61  56  83 E3        30.09S
POPLAR BLUFF   SUNNY     64  55  72 NE7       30.06S
CAPE GIRARDEAU SUNNY     64  57  78 E5        30.07S


...NORTHWEST ALABAMA...

CITY           SKY/WX    TMP DP  RH WIND       PRES   REMARKS
MUSCLE SHOALS  SUNNY     71  63  75 CALM      30.06R


...MIDDLE TENNESSEE...

CITY           SKY/WX    TMP DP  RH WIND       PRES   REMARKS
NASHVILLE      SUNNY     67  60  78 E3        30.08R
CLARKSVILLE    SUNNY     64  57  78 E6        30.08R
DICKSON        SUNNY     63  57  82 E5        30.07R
COLUMBIA       MOSUNNY   66  66 100 NE5       30.05S
LEWISBURG      MOSUNNY   65  61  87 CALM      30.06S


...WESTERN KENTUCKY...

CITY           SKY/WX    TMP DP  RH WIND       PRES   REMARKS
PADUCAH        SUNNY     68  58  70 E5        30.08R
FORT CAMPBELL  SUNNY     64  60  85 E7        30.08R


...CENTRAL ARKANSAS...

CITY           SKY/WX    TMP DP  RH WIND       PRES   REMARKS
LITTLE ROCK    CLOUDY    70  64  81 NE8       30.04R


SKY/WX REPORTED AS FAIR MEANS FEW OR NO CLOUDS BELOW
12 THOUSAND FEET.



USA.gov is the U.S. government's official web portal to all federal, state and local government web resources and services.